Flag for Falkland Islands Weather past 2 weeks in Stanley, Falkland Islands

Now
28 °F

Passing clouds.


Feels Like: 17 °F
Forecast: 36 / 43 °F
Wind: 15 mph from West

Location: Mount Pleasant Airport

Current Time: Sep 20, 2014 at 7:54:29 AM

Latest Report: Sep 20, 2014 at 6:50 AM


Visibility: N/A

Pressure: 30.18 "Hg

Humidity: 86%

Dew point: 25 °F

Location of StanleyLocation

Historic Weather in Stanley — Graph

°F

Stanley temperature yesterday

Maximum temperature yesterday: 39 °F (at 3:50 PM)
Minimum temperature yesterday: 28 °F (at 6:50 AM)
Average temperature yesterday: 33 °F

Past Weeks' High & Low Weather Summary

 TemperatureHumidityPressure
High54 °F (Sep 17, 1:50 PM)100% (Sep 5, 6:50 AM)30.18 "Hg (Sep 5, 6:50 AM)
Low27 °F (Sep 20, 5:50 AM)40% (Sep 15, 1:50 PM)28.97 "Hg (Sep 10, 12:50 AM)
Average41 °F82%29.45 "Hg
* Reported Sep 5 6:50 AM — Sep 20 6:50 AM, Stanley, Weather by CustomWeather, © 2014

Note: Actual official high and low records may vary slightly from our data, if they occured in-between our weather recording intervals... More about our weather records

Advertising

Stanley weather history for previous 24 hours

 ConditionsComfort  
Time TempWeatherWind HumidityBarometerVisibility
6:50 AM
Sep 20
28 °FPassing clouds.15 mph86%30.18 "HgN/A
5:50 AM27 °FPassing clouds.13 mph93%30.18 "HgN/A
4:50 AM28 °FPassing clouds.12 mph86%30.15 "HgN/A
3:50 AM28 °FPassing clouds.12 mph93%30.15 "HgN/A
2:50 AM30 °FPassing clouds.12 mph93%30.15 "HgN/A
1:50 AM30 °FPassing clouds.10 mph93%30.12 "HgN/A
12:50 AM28 °FPassing clouds.9 mph100%30.12 "HgN/A
11:50 PM
Sep 19
28 °FPassing clouds.9 mph93%30.09 "HgN/A
10:50 PM30 °FPassing clouds.9 mph93%30.09 "HgN/A
9:50 PM30 °FPassing clouds.6 mph100%30.07 "HgN/A
8:50 PM32 °FPassing clouds.9 mph93%30.04 "HgN/A
7:50 PM32 °FPassing clouds.12 mph93%30.01 "HgN/A
6:50 PM36 °FSnow showers. Broken clouds.15 mph65%29.98 "HgN/A
5:50 PM36 °FPassing clouds.22 mph60%29.95 "HgN/A
4:50 PM36 °FScattered clouds.22 mph65%29.92 "HgN/A
3:50 PM39 °FScattered clouds.26 mph48%29.89 "HgN/A
2:50 PMN/ABroken clouds.30 mphN/AN/AN/A
12:53 PM37 °FScattered clouds.29 mph70%29.83 "HgN/A
11:55 AM37 °FScattered clouds.29 mph65%29.80 "HgN/A
9:58 AM34 °FScattered clouds.20 mph93%29.77 "HgN/A
9:01 AM32 °FPassing clouds.15 mph93%29.74 "HgN/A
8:50 AM32 °FScattered clouds.14 mph100%29.74 "HgN/A
7:50 AM28 °FPassing clouds.10 mph93%29.71 "HgN/A
Weather by CustomWeather, © 2014

See weather overviewHow to use our weather pages